User: anonymous   Login
Location: Muenchen
(48.1800°N, 11.5800°E)
Time: 10:56:01
(UTC+01:00)
Language:

ISS - Orbit

View from above orbital plane
View from above orbital plane
View from above satellite
View from above satellite

Ground track
Ground track

The orbit data is extracted from the following two-line orbital elements,

1 25544U 98067A   16346.91389758  .00016717  00000-0  10270-3 0  9041
2 25544  51.6410 251.8458 0005922 318.9418  41.1288 15.53846779 32626
Epoch (UTC): 11 December 2016 21:56:00
Eccentricity: 0.0005922
inclination: 51.6410°
perigee height: 401 km
apogee height: 409 km
right ascension of ascending node: 251.8458°
argument of perigee: 318.9418°
revolutions per day: 15.53846779
mean anomaly at epoch: 41.1288°
orbit number at epoch: 3262

The dashed part of the orbit path shows where the satellite is in the earth's shadow,  

DLR